Theta_e
290 290 290 291 291 291 291 291 291 291 291 290 290 289 288 287 286 285 284 283 283 283 282 281 281 281 281 281 281 281 280 280 280 279 279 279 279 280 279 279 278 278 278 278 277 277 277 277 277 277 276 276 276 276 276 276 276 276 275 275 275 275
289 289 289 289 289 289 289 289 290 290 290 289 289 289 288 286 285 284 283 283 283 282 282 281 281 281 281 281 281 280 280 280 280 279 279 279 280 279 279 279 278 278 277 277 277 277 277 277 276 276 276 275 276 275 275 275 275 275 275 274 275 274
288 288 288 288 288 288 288 288 288 290 290 289 289 288 286 285 285 283 283 283 282 282 281 281 281 280 281 280 280 280 280 280 280 279 279 279 279 279 278 278 278 278 278 277 277 277 276 276 276 275 275 274 274 274 274 274 274 274 274 274 273 273
286 286 286 286 287 287 287 287 287 287 288 289 289 288 287 285 284 283 283 282 283 282 282 281 281 281 280 280 280 280 280 280 279 279 279 279 279 279 279 278 278 277 277 277 277 276 276 276 275 275 274 274 274 274 274 274 274 273 273 273 273 272
286 286 287 287 287 287 287 286 286 287 287 288 288 287 287 286 285 284 283 283 282 282 282 281 281 280 280 280 279 279 279 279 279 279 279 279 279 279 278 278 277 277 277 276 276 276 275 275 275 274 274 274 274 273 273 274 274 273 273 272 272 272
285 285 285 286 286 286 286 286 286 286 286 287 288 287 287 286 285 284 283 283 282 282 281 281 281 280 280 279 279 279 278 278 279 279 279 279 279 278 278 277 277 277 276 276 275 275 275 275 274 274 274 274 274 273 273 273 273 273 272 272 272 271
284 285 286 286 286 286 286 286 286 285 286 286 287 287 287 286 285 284 283 282 282 281 281 281 280 280 279 279 279 278 278 278 279 279 279 278 278 278 277 277 277 277 277 276 275 275 275 274 274 274 274 274 274 274 274 273 273 273 272 272 272 273
285 285 285 286 286 286 286 286 286 285 285 285 286 287 286 286 285 284 283 282 282 281 281 281 280 280 280 280 280 279 279 279 279 279 278 278 278 278 278 277 277 277 277 276 276 275 275 275 274 273 273 273 274 274 274 273 273 273 272 271 271 272
285 285 285 286 286 286 286 286 286 285 285 285 285 286 286 285 284 284 283 282 282 281 281 281 280 281 281 280 280 280 279 279 279 279 279 279 279 278 278 278 277 277 277 277 276 275 275 275 274 273 274 274 274 274 273 273 272 271 271 271 271 271
285 285 285 285 285 286 286 286 286 285 285 284 284 285 285 285 284 283 282 282 281 281 281 281 281 281 281 281 280 279 279 279 279 279 279 279 278 278 278 278 277 277 277 276 276 275 275 274 274 274 273 273 273 274 273 272 272 272 271 271 271 271
285 285 285 285 285 285 285 285 285 285 285 285 284 284 284 285 284 283 282 282 281 281 282 282 281 281 281 280 280 279 279 279 279 279 279 279 278 278 278 278 278 277 276 276 276 275 275 274 274 274 274 273 273 273 273 272 272 273 272 271 271 271
285 285 285 284 284 285 285 285 285 285 285 284 284 283 284 284 284 283 283 282 282 282 282 281 281 281 280 280 280 279 279 279 279 279 278 278 278 278 278 277 277 277 276 275 275 275 275 274 275 276 278 277 274 273 273 273 273 273 272 271 271 271
285 285 284 285 285 285 285 285 285 285 284 284 284 283 283 283 283 283 283 282 282 282 282 281 281 281 280 280 280 280 279 279 279 278 278 278 278 277 277 277 276 276 276 275 275 274 274 274 275 278 280 280 279 275 274 273 273 272 272 271 271 271
285 285 285 285 285 285 285 285 285 285 284 284 284 283 283 283 283 283 283 282 282 282 281 281 281 280 280 280 280 280 279 279 278 278 278 278 277 277 276 276 276 276 276 275 275 274 274 274 277 280 281 282 281 278 274 274 273 272 272 272 271 271
286 286 285 285 285 285 285 285 284 284 285 284 284 283 282 283 283 283 282 282 282 282 281 281 281 280 280 280 280 279 279 278 278 278 277 277 277 277 276 276 276 275 275 275 275 274 274 274 278 281 283 283 283 281 277 274 273 272 272 272 271 270
286 286 286 286 286 286 285 285 285 285 285 284 283 282 282 282 282 282 282 282 282 281 281 281 281 280 280 280 279 279 278 278 278 278 278 277 277 276 276 276 276 276 275 275 274 274 274 274 277 281 283 284 284 283 279 273 273 272 272 272 271 271
285 285 286 286 286 285 285 285 285 285 284 283 283 283 282 282 282 282 282 282 281 281 281 281 280 280 279 279 279 279 278 278 278 278 278 277 277 276 276 276 275 275 275 275 275 274 274 274 278 281 283 284 284 284 282 273 272 272 272 271 271 271
286 286 286 285 285 285 285 285 285 284 284 283 283 282 282 283 282 282 282 281 281 281 280 280 280 280 279 279 279 278 278 278 278 277 278 277 277 277 276 276 276 275 275 275 274 274 273 274 279 281 283 284 285 285 281 273 272 272 271 270 271 271
286 285 284 284 284 284 284 284 284 284 283 282 282 282 282 282 282 282 282 281 281 281 280 281 280 280 279 279 278 278 278 278 278 278 278 277 277 277 276 276 276 276 275 275 274 273 274 274 277 280 282 284 285 284 279 274 273 272 270 270 271 271
283 284 284 283 283 283 283 283 283 283 283 283 282 282 282 282 282 282 282 282 282 281 281 281 281 280 280 279 278 278 279 278 279 278 278 277 276 276 276 276 276 275 275 275 274 274 274 274 276 280 282 283 285 284 279 276 274 273 272 271 271 271
283 283 283 283 282 282 283 283 283 283 283 283 282 282 281 281 282 283 283 283 283 282 282 281 281 281 280 280 279 279 279 279 278 278 278 277 277 277 276 275 275 275 274 274 274 276 274 274 275 278 280 282 284 284 280 276 274 273 273 273 272 272
283 282 282 282 282 282 282 282 282 282 281 281 281 281 282 283 283 284 284 284 283 283 282 282 281 281 281 280 280 279 279 279 278 277 277 276 276 276 275 274 275 274 274 274 273 273 273 272 272 274 279 281 283 284 280 275 274 273 273 273 272 270
284 283 283 283 282 282 282 283 283 282 283 283 283 282 283 284 284 284 284 283 283 282 282 282 282 281 281 281 280 280 279 278 278 277 276 275 275 274 273 273 273 273 273 272 271 270 270 270 270 272 277 280 282 284 283 275 275 275 273 272 271 269
283 283 282 282 283 284 284 284 284 284 283 283 283 284 284 284 284 284 283 283 282 282 282 281 281 282 281 281 280 279 278 277 277 277 276 275 274 273 273 272 271 271 271 271 270 269 269 270 272 270 274 278 280 283 284 279 276 276 273 272 270 269
283 282 281 282 284 284 285 285 284 284 283 283 284 284 284 283 283 283 282 282 282 281 281 281 280 280 280 279 279 279 278 277 276 275 274 273 273 272 272 272 271 270 270 270 269 269 268 268 269 273 271 275 278 281 283 284 281 280 275 272 271 270
281 281 281 282 283 285 285 285 284 283 283 283 282 282 281 281 281 282 281 281 281 280 280 280 280 280 279 279 278 278 277 275 275 274 273 273 272 272 271 271 271 270 270 270 271 271 270 269 268 270 274 273 276 278 281 283 284 284 277 273 272 272
281 281 280 280 282 283 284 285 284 282 282 281 281 281 281 280 280 280 280 280 280 279 280 279 279 279 278 278 278 277 277 275 273 273 272 271 272 272 272 272 271 270 270 271 271 272 272 270 268 267 270 275 276 277 278 280 281 283 284 279 274 273
280 280 279 277 277 279 280 281 283 282 281 278 279 279 279 278 278 279 279 279 279 278 278 278 277 277 277 276 277 277 277 276 274 274 273 271 272 271 272 272 271 270 270 270 271 271 272 270 268 268 267 270 272 275 277 278 279 279 281 282 281 279
279 278 278 277 273 274 275 274 274 274 273 274 275 276 277 277 278 278 276 276 276 274 275 276 276 275 275 275 276 276 276 276 275 274 273 272 271 271 271 271 271 271 270 270 271 271 271 270 268 267 265 264 265 267 269 272 274 277 278 277 277 279
276 274 274 274 270 271 271 272 270 268 268 268 269 269 271 273 273 274 273 273 272 273 274 276 273 275 275 275 275 275 274 274 274 274 274 272 272 271 271 271 271 271 271 271 271 271 270 270 268 267 265 264 264 264 265 266 267 268 270 271 273 275
274 273 273 272 269 270 271 270 269 268 269 268 267 270 273 273 271 271 270 270 270 272 272 273 272 273 274 273 272 273 273 273 273 274 273 272 271 272 272 271 272 272 271 271 271 269 269 269 269 268 272 268 270 266 265 264 265 267 267 271 274 274
273 273 272 270 269 270 270 268 268 268 268 267 267 269 273 271 271 270 269 269 270 268 269 269 269 268 270 270 270 269 269 271 277 274 272 270 275 277 278 277 272 269 266 269 270 269 270 271 270 275 276 276 276 276 275 273 273 273 270 272 275 275
271 272 271 270 269 269 268 266 265 265 265 267 268 269 269 270 271 270 268 268 268 268 267 266 266 266 266 266 266 266 267 266 268 276 278 278 277 277 277 279 279 280 278 271 269 270 276 277 277 278 278 278 278 278 278 278 278 277 277 278 274 272
272 273 272 271 270 268 266 264 262 262 263 264 265 266 268 269 270 269 267 266 265 266 266 265 265 264 264 263 263 263 264 264 265 267 273 276 277 278 279 279 279 279 279 280 278 273 268 274 277 278 278 279 279 279 279 279 279 279 279 279 279 273
271 270 270 268 266 264 263 261 260 260 260 261 262 263 266 265 267 266 264 263 264 264 265 263 262 262 262 262 262 262 261 262 263 265 266 266 273 274 275 276 278 279 279 280 280 280 279 279 278 278 279 279 279 279 279 279 280 280 280 280 277 274
268 267 266 264 262 261 260 259 258 258 258 258 260 262 264 263 263 263 263 263 263 263 262 261 261 261 261 261 261 260 260 261 261 262 261 262 264 265 268 272 273 274 274 275 276 278 278 279 279 279 279 279 279 279 279 278 277 279 280 278 275 274
266 265 264 263 261 260 259 257 257 257 257 257 258 260 261 261 262 261 263 264 263 261 262 261 262 261 259 260 260 260 261 262 261 262 261 260 260 261 262 262 263 267 271 270 271 273 275 276 277 278 278 278 279 279 280 280 276 274 274 275 276 275
263 262 261 260 259 258 258 257 257 256 257 256 257 260 261 261 261 261 262 261 260 260 260 259 259 259 260 259 259 258 259 260 260 261 259 259 259 258 258 258 259 260 265 269 271 272 273 273 274 275 276 276 277 278 278 275 274 273 273 273 274 274
Wind_Speed
11 12 12 10 10 11 11 12 12 11 11 12 13 15 14 13 10 10 9 10 10 9 11 11 10 9 8 8 8 9 10 10 8 9 8 7 7 8 8 8 8 7 7 7 7 7 7 6 7 6 6 6 7 5 6 5 6 7 6 5 6 6
11 12 12 13 13 12 10 10 10 12 12 12 12 10 11 11 12 11 11 11 10 10 9 9 8 8 9 9 10 10 10 10 10 9 9 9 8 7 8 8 8 9 9 7 8 7 6 7 6 6 6 5 5 6 6 5 6 7 7 6 5 5
9 9 9 8 7 7 8 10 13 12 11 12 12 14 13 14 13 11 11 11 10 11 12 11 10 10 8 8 9 10 9 8 8 8 8 7 8 8 8 8 9 9 8 8 8 8 8 7 7 5 5 5 5 4 5 5 5 6 5 6 6 5
8 7 6 6 8 9 11 9 8 10 12 12 12 12 13 14 12 12 10 10 10 12 11 11 8 9 8 10 9 9 9 9 9 8 8 9 8 8 9 9 8 8 8 8 8 7 7 7 7 7 6 6 5 4 4 6 6 6 6 5 6 5
9 10 11 12 13 12 12 11 11 11 11 11 12 13 13 12 12 10 10 10 11 12 11 9 9 9 9 11 9 9 9 8 7 7 10 9 8 7 8 9 9 9 8 7 7 7 7 8 8 6 6 5 6 6 5 6 7 8 8 6 6 6
7 8 10 11 11 12 13 12 11 11 11 12 12 14 13 12 11 11 11 10 10 10 10 10 9 10 10 11 9 10 9 8 8 8 9 8 8 9 7 6 8 8 8 8 8 8 8 7 7 6 6 7 7 7 8 7 6 6 6 7 7 6
10 12 12 13 13 12 12 12 12 12 11 10 12 12 12 12 10 11 10 11 11 10 11 11 11 12 12 11 9 10 9 9 8 8 9 8 8 8 8 7 7 8 9 10 10 10 8 8 8 8 7 6 5 7 7 7 6 6 6 6 6 7
10 11 12 11 12 12 12 12 12 12 12 12 10 11 11 11 10 11 12 11 12 12 13 12 11 13 13 12 11 11 10 9 9 8 7 8 9 8 8 9 8 9 10 9 10 9 9 9 9 9 8 7 7 7 6 6 6 6 5 5 5 6
13 12 12 12 11 12 12 12 13 12 12 12 11 11 11 11 11 11 12 12 12 11 13 13 13 12 11 11 10 9 9 9 8 8 8 7 8 9 9 8 8 7 8 8 8 8 9 9 8 7 7 7 8 9 8 7 6 5 4 4 5 5
11 13 14 12 12 11 11 12 12 13 13 13 11 11 11 10 12 12 12 12 12 12 13 12 10 10 10 9 8 9 9 9 8 8 7 7 9 9 9 9 9 7 6 6 7 6 6 6 7 7 7 7 8 8 7 7 7 6 4 4 4 5
14 13 12 13 11 13 13 12 12 11 11 11 12 11 13 12 12 12 12 12 13 13 11 9 9 8 9 9 9 10 10 10 9 9 8 8 8 7 7 6 6 7 7 5 6 6 6 7 7 7 8 9 9 8 8 7 7 7 6 5 5 5
10 11 11 11 14 14 13 13 13 13 13 12 11 12 10 11 13 13 13 13 13 10 9 9 8 9 9 10 11 10 9 9 9 8 8 8 7 7 7 7 7 7 8 8 7 6 6 6 6 8 14 12 10 9 7 7 7 7 6 6 6 6
9 9 12 15 15 15 13 12 10 9 10 11 12 12 10 10 11 12 12 12 9 9 9 9 9 9 10 10 9 7 9 9 8 8 7 7 8 8 7 7 8 8 7 8 7 8 7 7 7 13 16 16 15 10 8 8 7 7 7 6 7 8
12 13 15 15 14 14 14 13 11 11 12 11 11 10 9 10 11 12 11 10 10 10 10 10 9 10 10 9 9 8 7 7 7 7 7 6 6 7 5 7 8 7 7 7 7 8 8 8 9 15 17 17 16 12 8 7 7 7 7 8 8 7
13 14 13 12 14 14 14 13 12 14 13 12 10 9 10 11 11 11 10 10 10 10 10 9 10 10 8 8 8 8 8 8 8 8 8 10 7 5 7 9 8 9 8 8 9 9 8 7 11 17 18 18 17 16 11 6 7 7 8 8 8 7
9 10 11 11 11 13 11 12 13 10 9 10 10 12 12 12 11 11 11 9 9 9 9 10 9 9 8 7 8 8 9 9 11 9 7 6 6 8 8 7 9 8 9 9 9 9 8 9 12 18 19 18 18 17 13 6 7 7 7 9 8 7
6 6 9 11 10 9 10 10 9 9 10 10 11 10 11 11 11 10 11 11 10 9 8 9 9 8 8 8 8 8 9 9 8 8 8 8 10 10 11 10 10 9 9 9 8 8 8 9 13 18 20 19 19 18 13 7 6 6 7 7 7 8
13 13 11 7 9 9 10 10 9 10 10 9 11 10 11 10 10 10 9 10 10 10 10 10 9 9 9 9 8 9 9 9 10 10 8 7 7 6 5 6 6 9 9 9 8 8 10 9 16 18 19 20 19 20 9 8 8 8 8 7 8 7
5 5 6 7 9 10 10 9 10 10 10 10 10 11 10 11 11 11 10 10 10 10 11 11 12 11 9 9 9 9 9 9 9 8 6 8 8 8 9 9 10 9 9 9 9 10 11 8 12 18 19 19 20 15 8 8 7 7 8 9 8 7
4 5 8 8 7 7 7 8 10 10 10 10 9 10 10 10 12 12 12 11 10 11 11 11 10 10 9 9 10 10 9 8 6 8 7 9 10 10 11 9 7 7 8 9 11 11 11 10 10 16 17 18 19 14 9 8 8 8 8 8 7 6
7 7 7 8 8 7 8 9 10 10 9 8 9 9 10 11 11 10 11 11 10 9 9 9 9 9 9 10 10 10 10 10 10 8 7 7 7 8 6 6 7 7 7 8 10 8 10 9 8 14 16 18 19 14 7 7 7 8 9 8 9 7
8 7 8 9 8 8 10 9 10 8 9 7 7 8 10 12 11 9 7 6 7 7 8 7 9 9 10 11 9 9 10 8 7 8 9 8 7 7 6 6 7 9 9 7 8 8 9 8 7 8 16 17 18 19 9 6 8 11 11 9 9 8
7 8 8 7 9 9 9 10 10 9 8 9 9 12 11 6 6 6 6 6 7 7 8 8 9 11 10 10 10 9 8 7 8 7 8 8 7 6 7 7 7 8 8 6 6 6 7 7 8 8 14 16 18 20 16 9 11 11 9 9 9 9
7 7 6 5 9 9 9 10 10 8 9 9 11 7 6 7 7 7 8 8 8 8 9 10 9 9 9 8 7 8 8 7 8 8 9 7 7 9 9 7 6 7 8 6 6 6 8 6 9 8 12 16 18 19 22 12 13 12 9 9 9 9
7 7 5 4 5 6 6 8 9 8 8 9 6 6 7 7 8 8 8 8 8 8 9 9 10 9 8 8 9 9 9 7 8 7 7 8 8 8 9 9 8 7 8 7 7 7 8 8 8 14 11 15 18 21 22 23 14 14 10 10 12 13
8 8 6 5 5 5 6 8 8 7 7 5 4 5 6 7 7 7 8 8 8 8 8 8 9 8 7 8 8 8 8 7 7 7 7 7 8 7 8 8 7 7 9 10 10 9 9 8 7 10 15 13 19 21 22 22 23 18 11 10 12 11
10 9 7 5 5 5 5 6 9 7 6 4 6 7 7 7 7 7 7 7 7 7 7 6 6 7 7 7 8 8 7 7 7 7 6 7 7 8 9 9 8 9 10 9 10 10 8 7 7 8 11 17 17 19 20 20 20 22 24 14 12 11
9 10 9 6 4 5 4 3 5 8 4 3 4 5 6 7 7 6 6 6 5 6 5 6 5 5 6 7 7 8 8 9 9 9 7 7 8 9 9 9 7 8 8 9 10 10 9 5 6 7 6 8 11 12 17 20 21 21 21 21 16 15
9 8 8 7 3 5 5 5 5 4 3 3 3 4 5 5 5 5 4 5 4 4 5 7 7 6 6 7 6 6 7 7 8 8 8 8 9 8 8 8 7 8 7 9 10 9 7 6 6 5 4 5 6 8 9 10 12 15 17 13 12 15
8 7 6 7 4 5 6 7 6 4 5 4 4 4 4 4 4 5 4 4 4 4 5 6 6 7 5 5 6 6 5 4 5 7 8 9 9 8 8 7 8 9 9 9 9 7 6 8 7 6 6 7 7 7 6 7 8 8 8 10 11 10
7 5 7 5 4 6 7 7 6 7 7 5 3 4 5 5 4 4 3 3 3 2 1 1 1 2 2 2 2 1 1 5 5 6 5 2 5 6 7 7 8 8 6 7 7 6 8 8 8 7 8 9 11 11 8 8 9 9 9 13 16 11
6 7 7 5 4 6 7 7 7 6 6 5 5 2 5 4 4 4 4 3 3 3 3 2 2 1 1 2 2 2 2 2 2 4 5 5 4 8 11 8 7 5 4 7 7 6 9 11 5 2 9 13 15 18 19 17 16 16 13 14 19 14
6 8 7 5 5 7 7 7 6 7 7 6 5 4 5 5 6 5 5 4 4 3 3 3 3 2 2 1 1 1 1 3 4 3 5 6 6 7 8 11 13 13 10 8 7 6 13 15 15 16 14 14 14 15 16 18 18 19 19 20 12 9
6 8 8 6 7 8 7 7 7 6 6 6 5 3 5 4 6 6 4 5 3 3 3 4 3 3 2 2 1 1 1 1 3 5 3 4 7 8 10 12 12 13 14 15 14 8 4 9 13 15 16 16 17 17 17 17 18 18 19 18 19 11
7 7 7 7 8 8 7 8 7 6 6 6 5 3 7 6 6 6 4 4 4 4 3 3 3 2 2 1 1 1 1 1 1 4 5 3 5 6 6 8 10 11 14 15 15 17 15 13 11 13 15 16 16 17 17 17 18 18 19 18 12 10
8 8 8 8 9 8 8 9 6 7 6 5 5 5 7 6 6 5 4 4 3 5 3 3 2 2 1 1 1 1 1 1 1 2 2 4 7 6 4 4 6 9 11 11 11 12 14 14 15 16 16 16 17 17 16 15 12 17 18 15 10 9
9 8 7 8 7 8 8 7 5 5 5 5 4 5 6 6 6 6 6 7 5 4 4 3 2 2 2 2 1 1 0 0 0 0 0 1 2 3 4 5 6 6 6 6 7 9 10 11 12 13 13 14 15 15 16 16 10 8 6 7 7 7
9 8 6 7 8 7 8 6 4 5 5 4 3 6 6 6 6 5 5 4 4 4 3 3 3 2 2 1 1 1 1 1 1 1 1 2 1 2 3 4 4 4 6 10 8 8 8 9 10 9 9 9 9 10 11 7 7 7 6 6 6 7
Wind_Direction
192 190 192 191 191 191 189 182 179 181 182 182 182 182 180 177 178 175 173 174 175 178 178 176 176 175 169 165 162 161 162 162 162 163 160 148 154 152 152 149 148 146 144 143 143 144 141 134 130 130 130 134 135 145 148 159 147 134 130 142 130 133
190 188 187 188 187 186 187 183 180 185 183 180 182 175 173 173 177 175 177 179 173 174 172 178 179 174 171 167 165 169 171 168 165 162 160 165 156 159 154 153 154 153 150 155 149 145 141 136 130 132 133 136 148 155 158 166 145 137 138 139 132 129
186 186 189 189 186 190 185 186 187 185 180 183 178 177 179 180 179 177 181 173 177 172 178 178 175 174 166 166 173 168 168 167 167 170 164 147 163 158 159 161 159 157 156 155 155 150 148 142 138 130 133 144 160 173 161 153 148 141 142 135 127 123
181 177 175 176 181 189 191 193 189 189 188 185 178 178 183 182 182 181 173 177 174 179 180 179 175 169 166 171 173 173 171 170 171 166 154 167 163 165 165 163 160 157 157 156 150 145 142 142 142 147 148 160 165 168 169 159 155 148 145 138 137 137
182 182 183 186 191 191 188 189 193 193 189 184 185 182 187 183 178 176 173 175 179 182 180 176 175 169 172 173 176 176 172 172 170 167 167 167 165 169 171 165 160 158 156 151 149 147 151 155 156 154 150 162 171 170 178 180 167 157 153 151 154 150
172 177 188 189 193 193 193 193 191 193 195 191 183 189 181 178 179 176 175 179 182 179 174 181 175 173 177 180 179 176 174 172 173 170 171 168 164 167 169 163 157 154 157 152 153 161 162 158 150 151 166 176 182 180 178 178 175 163 158 157 159 156
184 193 193 195 196 195 193 195 195 191 193 192 191 190 180 179 175 175 178 178 178 179 181 182 180 182 182 182 177 178 172 175 173 175 173 164 170 169 160 160 159 161 162 164 169 170 169 164 159 165 176 185 189 187 177 174 169 160 157 165 165 161
194 196 198 197 199 196 194 196 195 194 192 194 189 186 182 181 176 179 176 180 181 183 186 186 183 188 186 181 178 177 176 174 176 175 173 172 170 168 172 165 171 176 176 173 173 171 165 164 169 174 175 177 185 185 174 166 164 156 155 165 169 164
204 203 200 201 199 197 196 194 194 194 193 191 190 189 181 179 178 180 180 181 185 185 190 189 189 186 184 182 178 171 171 174 174 174 176 175 174 172 173 176 177 188 179 174 170 174 170 167 168 170 173 180 185 178 159 158 155 150 157 173 172 170
202 202 201 197 201 199 200 198 195 192 191 191 187 185 182 180 181 181 182 181 185 189 192 191 183 182 182 176 169 171 171 170 172 176 172 170 179 182 180 178 182 180 177 175 177 171 163 164 170 174 176 184 188 175 164 163 157 155 170 175 180 179
206 200 197 199 194 201 201 196 196 192 193 192 186 183 188 179 178 181 183 184 189 194 188 179 178 175 171 170 168 172 175 175 175 174 174 181 183 182 179 172 174 171 176 177 174 170 171 179 184 181 180 181 186 173 162 164 163 165 175 186 189 194
203 199 194 195 199 200 199 201 198 195 189 187 186 186 184 172 186 182 184 189 191 183 177 174 172 175 171 170 178 178 175 176 175 174 177 183 181 174 175 174 176 182 183 179 180 175 178 188 189 189 190 191 180 170 167 153 166 172 182 189 198 205
202 193 196 201 200 199 198 202 200 192 192 188 186 186 178 174 178 186 187 190 181 174 167 169 176 173 178 179 173 170 174 175 173 177 181 182 181 178 174 172 180 188 188 186 182 183 191 195 194 195 198 193 183 172 168 172 176 178 187 199 202 207
200 199 203 201 196 194 195 194 190 186 195 187 183 176 167 175 180 185 186 181 175 173 171 173 171 175 180 174 176 173 172 169 172 180 183 180 180 181 167 183 193 189 191 189 188 194 198 199 198 200 201 194 187 178 171 173 177 183 195 202 210 214
207 206 205 196 196 195 196 183 179 191 186 179 173 154 168 179 180 181 182 182 178 174 170 168 171 177 178 181 173 167 165 173 177 180 182 191 185 167 183 196 190 198 196 195 196 201 199 202 201 203 203 198 192 183 174 179 182 186 201 205 211 212
210 208 203 199 197 196 183 181 186 182 170 164 157 166 170 174 180 179 178 173 178 171 169 169 172 178 177 171 171 170 176 179 188 188 184 170 168 188 195 196 200 200 203 203 202 203 200 205 206 206 206 201 195 189 181 184 187 197 203 209 210 212
196 191 194 199 188 170 165 177 173 158 158 161 165 167 169 178 177 179 175 173 171 165 164 168 170 172 171 174 176 177 181 185 185 185 186 182 189 191 196 197 199 205 206 206 205 205 208 213 207 210 209 204 196 194 184 177 192 198 210 215 215 216
197 196 196 162 155 166 170 171 160 157 163 159 164 165 169 168 176 180 174 177 172 166 164 165 170 174 177 177 176 181 186 187 191 192 186 186 196 200 198 211 207 210 209 207 203 207 218 219 210 213 213 208 199 194 181 175 192 201 210 219 219 218
189 173 141 151 160 160 168 157 156 155 151 159 165 163 166 170 177 178 176 179 170 170 171 173 175 179 175 174 178 188 191 191 195 195 182 193 200 198 203 205 209 209 205 206 205 211 222 221 212 214 218 215 204 194 183 179 190 203 209 222 218 218
117 131 143 147 153 153 146 147 151 150 155 163 160 162 169 176 187 186 186 182 177 177 173 174 173 174 176 175 187 192 197 198 199 201 189 197 199 205 210 208 211 212 208 209 212 212 217 224 211 214 220 221 213 203 192 185 193 206 211 222 221 216
132 133 127 135 141 148 142 144 146 151 158 160 162 167 174 189 191 184 184 184 179 172 165 166 169 173 176 187 195 194 196 198 200 195 186 205 208 217 206 201 211 217 217 217 221 213 217 229 216 214 220 222 219 211 196 187 195 210 219 218 229 222
110 116 135 148 153 142 143 145 148 152 156 155 156 171 189 195 191 183 170 154 153 154 158 164 173 181 186 196 195 192 200 192 185 187 190 201 203 209 202 200 211 219 226 218 219 223 221 227 227 217 223 222 222 217 196 184 191 219 220 216 223 224
126 141 149 147 141 142 143 145 146 156 155 156 165 193 195 170 142 145 144 141 147 159 169 176 182 189 196 195 195 192 189 187 192 185 187 195 196 198 207 207 213 222 233 223 223 223 231 223 229 226 224 228 226 223 210 196 212 221 217 218 222 224
99 98 97 121 139 141 147 148 152 153 153 165 190 180 127 134 141 144 156 168 173 175 177 183 189 190 192 187 176 180 190 193 188 190 191 187 189 201 212 212 217 225 238 233 227 226 231 225 222 228 227 229 230 229 223 212 221 214 210 222 227 230
93 89 94 100 113 126 132 139 142 149 160 182 175 140 142 147 155 160 166 171 174 178 180 183 182 185 183 184 185 186 193 183 183 187 180 184 194 203 213 217 219 226 238 242 237 234 231 227 227 227 225 227 230 233 233 230 226 212 209 215 231 230
89 87 77 83 100 121 136 139 139 148 167 179 129 136 139 150 156 157 163 170 177 176 180 182 185 186 181 182 179 185 189 183 185 184 187 188 192 200 215 224 216 225 237 240 245 238 232 226 222 230 229 226 229 235 239 241 240 226 210 212 234 241
112 105 91 82 103 120 133 141 143 159 164 162 147 150 152 151 149 154 164 171 176 180 180 176 180 182 183 180 175 182 190 186 172 187 194 184 198 204 215 223 207 219 231 240 246 250 244 220 215 227 229 232 235 237 242 247 250 249 240 228 234 237
104 108 105 73 63 88 92 109 141 155 176 150 140 142 136 142 143 160 172 174 175 176 161 170 182 183 185 182 185 192 192 187 185 193 189 189 205 208 216 224 211 223 231 240 247 249 250 223 215 227 219 219 237 242 243 242 244 247 249 253 250 232
99 104 107 98 45 74 69 74 49 60 68 90 104 121 134 139 152 157 161 171 169 154 166 176 185 187 188 192 191 196 194 190 189 192 192 195 204 211 217 224 220 229 232 240 249 253 254 245 238 225 207 204 217 231 238 246 253 256 258 258 261 265
119 118 108 102 72 65 69 64 56 49 60 61 74 83 99 120 147 160 176 173 164 176 178 192 186 184 192 197 190 195 202 204 190 197 205 200 203 204 222 215 224 226 228 238 246 256 262 258 244 225 206 213 213 223 226 229 238 240 236 247 251 252
117 118 107 97 76 79 77 70 50 34 36 29 52 110 120 132 134 122 124 125 122 131 113 126 122 166 170 169 195 238 181 192 207 217 239 229 184 206 211 218 230 230 232 235 243 237 259 261 252 238 203 210 205 206 210 219 223 226 230 237 241 247
110 107 98 94 94 91 84 64 49 39 30 28 15 46 112 115 103 91 80 81 88 84 93 85 78 79 97 131 159 205 295 339 188 209 211 247 227 216 226 220 231 218 202 230 239 206 233 255 260 201 215 219 220 222 219 219 221 222 228 236 240 237
98 100 95 102 92 85 79 67 42 31 19 19 15 54 98 106 99 91 88 85 85 105 107 104 94 86 94 87 110 117 174 293 318 294 257 237 222 232 242 248 253 251 229 200 242 240 239 252 266 267 266 260 250 245 247 247 244 242 241 243 240 238
106 103 104 99 94 89 82 73 45 31 16 10 3 38 80 83 97 96 96 101 109 98 104 110 119 116 115 93 98 120 158 238 295 308 296 258 263 261 254 251 256 260 264 263 262 255 238 250 261 268 272 272 269 269 268 265 262 260 257 254 250 240
96 92 92 90 90 82 75 66 37 18 14 5 2 43 78 72 87 93 89 95 95 97 99 105 101 109 122 138 124 115 119 177 247 282 308 341 0 340 315 302 290 284 278 275 275 276 278 278 264 252 257 263 272 274 272 270 270 268 263 260 253 243
86 85 86 85 80 81 71 59 25 9 358 357 3 52 80 82 86 97 102 99 105 93 83 93 111 113 121 134 137 152 151 179 185 226 315 332 327 346 357 17 5 353 347 337 322 304 293 288 287 289 287 282 276 268 263 263 267 267 263 255 248 245
90 82 78 84 84 78 70 57 14 351 351 358 11 66 75 77 81 83 75 78 87 92 103 115 117 124 124 117 123 131 122 148 127 129 145 248 278 293 293 298 312 324 337 329 325 320 306 299 299 296 293 289 285 284 280 270 262 258 259 258 257 250
84 81 73 79 81 79 73 47 4 352 354 1 30 73 77 77 81 82 84 76 77 84 88 96 107 120 119 124 124 128 142 134 144 149 179 181 201 218 250 278 275 288 309 314 315 317 318 319 314 306 306 307 309 316 314 282 259 246 239 239 244 251